WA8SIE Weather Reports


time (UTC)temp
C
wind
direction
speed
KPH
gust
KPH
rain 1hr
cm
rain 24hr
cm
rain mn
cm
humidity
%
barometer
mb
20260510205011 23 253 0.0 0.0 0.00 0.00 0.00 53 1008.7
20260510204511 23 310 0.0 0.0 0.00 0.00 0.00 55 1008.7
20260510204011 23 359 6.4 0.0 0.00 0.00 0.00 53 1008.8
20260510203511 23 224 0.0 0.0 0.00 0.00 0.00 53 1008.8
20260510203011 23 259 0.0 0.0 0.00 0.00 0.00 53 1008.8
20260510202511 23 295 1.6 0.0 0.00 0.00 0.00 53 1008.8
20260510201511 23 275 9.7 0.0 0.00 0.00 0.00 51 1008.8
20260510201011 23 6 4.8 0.0 0.00 0.00 0.00 54 1008.8
20260510200511 23 336 9.7 0.0 0.00 0.00 0.00 55 1008.8
20260510200011 23 5 0.0 0.0 0.00 0.00 0.00 55 1008.8
20260510194011 23 257 4.8 0.0 0.00 0.00 0.00 53 1009.1
20260510193511 23 292 3.2 0.0 0.00 0.00 0.00 53 1009.1
20260510193011 23 319 3.2 0.0 0.00 0.00 0.00 53 1009.1
20260510192511 23 258 1.6 0.0 0.00 0.00 0.00 56 1009.1
20260510192011 23 269 0.0 0.0 0.00 0.00 0.00 54 1009.1
20260510191511 23 286 9.7 0.0 0.00 0.00 0.00 54 1009.1
20260510191011 23 307 6.4 0.0 0.00 0.00 0.00 54 1009.0
20260510190511 23 6 9.7 0.0 0.00 0.00 0.00 54 1009.0
20260510190011 23 313 8.0 0.0 0.00 0.00 0.00 54 1009.0
20260510185511 23 196 0.0 0.0 0.00 0.00 0.00 54 1008.8
20260510185011 23 11 14.5 0.0 0.00 0.00 0.00 53 1008.8
20260510184511 23 292 8.0 0.0 0.00 0.00 0.00 52 1008.8
20260510184011 24 311 6.4 0.0 0.00 0.00 0.00 52 1008.6
20260510183511 24 295 3.2 0.0 0.00 0.00 0.00 51 1008.6
20260510183011 25 285 0.0 0.0 0.00 0.00 0.00 52 1008.6
20260510182011 24 221 0.0 0.0 0.00 0.00 0.00 53 1008.6
20260510181512 24 327 8.0 0.0 0.00 0.00 0.00 55 1008.6
20260510181013 24 315 0.0 0.0 0.00 0.00 0.00 52 1008.7
20260510180511 24 338 8.0 0.0 0.00 0.00 0.00 54 1008.7
20260510175511 23 291 0.0 0.0 0.00 0.00 0.00 53 1008.8
20260510175011 23 302 0.0 0.0 0.00 0.00 0.00 56 1008.8
20260510174511 23 304 8.0 0.0 0.00 0.00 0.00 54 1008.8
20260510174011 23 321 0.0 0.0 0.00 0.00 0.00 56 1008.8
20260510173513 23 295 0.0 0.0 0.00 0.00 0.00 53 1008.8
20260510173011 23 308 3.2 0.0 0.00 0.00 0.00 53 1008.8
20260510172511 23 317 0.0 0.0 0.00 0.00 0.00 52 1008.9
20260510172011 23 285 0.0 0.0 0.00 0.00 0.00 52 1008.9
20260510171511 23 234 0.0 0.0 0.00 0.00 0.00 51 1008.9
20260510171011 24 285 3.2 0.0 0.00 0.00 0.00 51 1008.6
20260510170511 25 287 6.4 0.0 0.00 0.00 0.00 50 1008.6
20260510165511 25 293 8.0 0.0 0.00 0.00 0.00 49 1008.7
20260510165011 24 0.0 0.0 0.00 0.00 0.00 51 1008.7
20260510163511 23 298 0.0 0.0 0.00 0.00 0.00 51 1008.7
20260510163011 23 256 0.0 0.0 0.00 0.00 0.00 51 1008.7
20260510161511 24 305 0.0 0.0 0.00 0.00 0.00 49 1008.8
20260510160511 25 319 0.0 0.0 0.00 0.00 0.00 51 1008.7
20260510160011 24 323 0.0 0.0 0.00 0.00 0.00 51 1008.7
20260510155511 24 105 0.0 0.0 0.00 0.00 0.00 51 1008.7
20260510155012 23 4 0.0 0.0 0.00 0.00 0.00 52 1008.7
20260510154511 23 194 0.0 0.0 0.00 0.00 0.00 50 1008.7
20260510152511 22 193 6.4 0.0 0.00 0.00 0.00 54 1008.9
20260510151510 22 199 8.0 0.0 0.00 0.00 0.00 52 1008.9
20260510150511 22 277 0.0 0.0 0.00 0.00 0.00 54 1008.9
20260510145011 22 219 0.0 0.0 0.00 0.00 0.00 56 1009.2
20260510144511 21 185 0.0 0.0 0.00 0.00 0.00 57 1009.2
20260510144011 21 251 4.8 0.0 0.00 0.00 0.00 56 1009.2
20260510143010 21 295 0.0 0.0 0.00 0.00 0.00 59 1009.2
20260510142511 20 224 3.2 0.0 0.00 0.00 0.00 61 1009.3
20260510141511 20 275 0.0 0.0 0.00 0.00 0.00 63 1009.3
20260510141011 20 198 0.0 0.0 0.00 0.00 0.00 63 1009.2
20260510140511 20 197 0.0 0.0 0.00 0.00 0.00 63 1009.2
20260510140011 20 198 3.2 0.0 0.00 0.00 0.00 62 1009.2
20260510135510 20 166 3.2 0.0 0.00 0.00 0.00 63 1009.2
20260510134510 19 207 0.0 0.0 0.00 0.00 0.00 69 1009.2
20260510133510 18 207 0.0 0.0 0.00 0.00 0.00 68 1009.1
20260510133010 18 207 0.0 0.0 0.00 0.00 0.00 69 1009.1
20260510132510 18 244 0.0 0.0 0.00 0.00 0.00 74 1009.0
20260510132012 17 198 0.0 0.0 0.00 0.00 0.00 76 1009.0
20260510131510 17 8 0.0 0.0 0.00 0.00 0.00 79 1009.0
20260510131010 16 8 0.0 0.0 0.00 0.00 0.00 83 1009.1
20260510130510 16 9 0.0 0.0 0.00 0.00 0.00 82 1009.1
20260510130010 16 108 0.0 0.0 0.00 0.00 0.00 85 1009.1
20260510125510 16 355 0.0 0.0 0.00 0.00 0.00 87 1009.0
20260510124010 15 145 0.0 0.0 0.00 0.00 0.00 97 1009.1
20260510123511 14 146 0.0 0.0 0.00 0.00 0.00 99 1009.1
20260510122511 13 146 0.0 0.0 0.00 0.00 0.00 100 1009.2
20260510122011 13 145 0.0 0.0 0.00 0.00 0.00 100 1009.2
20260510121510 12 146 0.0 0.0 0.00 0.00 0.00 100 1009.2
20260510121013 12 145 0.0 0.0 0.00 0.00 0.00 100 1008.9
20260510120511 12 145 0.0 0.0 0.00 0.00 0.00 100 1008.9
20260510120011 12 145 0.0 0.0 0.00 0.00 0.00 100 1008.9
20260510115511 11 145 0.0 0.0 0.00 0.00 0.00 100 1008.9
20260510115010 11 146 0.0 0.0 0.00 0.00 0.00 100 1008.9
20260510114011 11 146 0.0 0.0 0.00 0.00 0.00 100 1008.8
20260510113511 10 145 0.0 0.0 0.00 0.00 0.00 100 1008.8
20260510113011 10 146 0.0 0.0 0.00 0.00 0.00 100 1008.8
20260510112511 10 145 0.0 0.0 0.00 0.00 0.00 100 1008.3
20260510112012 10 145 0.0 0.0 0.00 0.00 0.00 100 1008.3
20260510111513 10 146 0.0 0.0 0.00 0.00 0.00 100 1008.3
20260510111011 10 146 0.0 0.0 0.00 0.00 0.00 100 1008.3
20260510110511 10 146 0.0 0.0 0.00 0.00 0.00 100 1008.3
20260510110011 10 145 0.0 0.0 0.00 0.00 0.00 100 1008.3
20260510105511 10 146 0.0 0.0 0.00 0.00 0.00 100 1007.9
20260510105011 10 145 0.0 0.0 0.00 0.00 0.00 100 1007.9
20260510104511 10 145 0.0 0.0 0.00 0.00 0.00 100 1007.9
20260510104011 10 145 0.0 0.0 0.00 0.00 0.00 100 1007.9
20260510103011 10 145 0.0 0.0 0.00 0.00 0.00 100 1007.9
20260510102511 10 145 0.0 0.0 0.00 0.00 0.00 100 1007.8
20260510101511 10 146 0.0 0.0 0.00 0.00 0.00 100 1007.8
20260510100511 10 145 0.0 0.0 0.00 0.00 0.00 100 1007.5
20260510100011 10 145 0.0 0.0 0.00 0.00 0.00 100 1007.5
20260510095511 10 146 0.0 0.0 0.00 0.00 0.00 100 1007.3
20260510095011 10 145 0.0 0.0 0.00 0.00 0.00 100 1007.3
20260510094511 10 146 0.0 0.0 0.00 0.00 0.00 100 1007.3
20260510094011 10 145 0.0 0.0 0.00 0.00 0.00 100 1007.2
20260510093511 10 145 0.0 0.0 0.00 0.00 0.00 100 1007.2
20260510093011 10 145 0.0 0.0 0.00 0.00 0.00 100 1007.2
20260510092513 10 145 0.0 0.0 0.00 0.00 0.00 100 1007.1
20260510092011 10 146 0.0 0.0 0.00 0.00 0.00 100 1007.1
20260510091511 10 146 0.0 0.0 0.00 0.00 0.00 100 1007.1
20260510091011 10 145 0.0 0.0 0.00 0.00 0.00 100 1007.0
20260510090511 10 145 0.0 0.0 0.00 0.00 0.00 100 1007.0
20260510090012 10 146 0.0 0.0 0.00 0.00 0.00 100 1007.0
20260510085512 10 146 0.0 0.0 0.00 0.00 0.00 100 1006.8
20260510085011 10 146 0.0 0.0 0.00 0.00 0.00 100 1006.8
20260510084511 10 146 0.0 0.0 0.00 0.00 0.00 100 1006.8
20260510083511 10 145 0.0 0.0 0.00 0.00 0.00 100 1006.7
20260510083010 10 146 0.0 0.0 0.00 0.00 0.00 100 1006.7
20260510082011 10 145 0.0 0.0 0.00 0.00 0.00 100 1006.7
20260510081513 10 146 0.0 0.0 0.00 0.00 0.00 100 1006.7
20260510081011 10 145 0.0 0.0 0.00 0.00 0.00 100 1006.7
20260510080511 10 146 0.0 0.0 0.00 0.00 0.00 100 1006.7
20260510080011 10 145 0.0 0.0 0.00 0.00 0.00 100 1006.7
20260510075011 10 145 0.0 0.0 0.00 0.00 0.00 100 1006.5
20260510074511 10 146 0.0 0.0 0.00 0.00 0.00 100 1006.5
20260510074011 10 145 0.0 0.0 0.00 0.00 0.00 100 1006.5
20260510073012 10 145 0.0 0.0 0.00 0.00 0.00 99 1006.5
20260510072511 10 145 0.0 0.0 0.00 0.00 0.00 99 1006.5
20260510072011 10 145 0.0 0.0 0.00 0.00 0.00 99 1006.5
20260510071511 10 146 0.0 0.0 0.00 0.00 0.00 99 1006.5
20260510071011 10 146 0.0 0.0 0.00 0.00 0.00 99 1006.5
20260510070010 11 146 0.0 0.0 0.00 0.00 0.00 99 1006.5
20260510065510 11 146 0.0 0.0 0.00 0.00 0.00 99 1006.4
20260510065013 11 146 0.0 0.0 0.00 0.00 0.00 99 1006.4
20260510064511 11 146 0.0 0.0 0.00 0.00 0.00 99 1006.4
20260510064011 11 146 0.0 0.0 0.00 0.00 0.00 99 1006.5
20260510063511 11 145 0.0 0.0 0.00 0.00 0.00 99 1006.5
20260510063013 11 145 0.0 0.0 0.00 0.00 0.00 98 1006.5
20260510062511 11 146 0.0 0.0 0.00 0.00 0.00 98 1006.5
20260510062010 11 146 0.0 0.0 0.00 0.00 0.00 98 1006.5
20260510061511 11 146 0.0 0.0 0.00 0.00 0.00 98 1006.5
20260510060511 11 145 0.0 0.0 0.00 0.00 0.00 98 1006.7
20260510060011 11 146 0.0 0.0 0.00 0.00 0.00 98 1006.7
20260510055512 11 145 0.0 0.0 0.00 0.00 0.00 97 1006.7
20260510054011 11 145 0.0 0.0 0.00 0.00 0.00 97 1006.7
20260510053511 11 146 0.0 0.0 0.00 0.00 0.00 97 1006.7
20260510053010 11 146 0.0 0.0 0.00 0.00 0.00 97 1006.7
20260510052510 11 145 0.0 0.0 0.00 0.00 0.00 97 1006.7
20260510052011 11 146 0.0 0.0 0.00 0.00 0.00 96 1006.7
20260510051512 11 146 0.0 0.0 0.00 0.00 0.00 96 1006.7
20260510051010 11 146 0.0 0.0 0.00 0.00 0.00 96 1006.8
20260510050511 11 145 0.0 0.0 0.00 0.00 0.00 96 1006.8
20260510050010 11 145 0.0 0.0 0.00 0.00 0.00 95 1006.8
20260510045511 11 146 0.0 0.0 0.00 0.00 0.00 95 1006.9
20260510045011 11 146 0.0 0.0 0.00 0.00 0.00 95 1006.9
20260510044011 11 146 0.0 0.0 0.00 0.00 0.00 95 1007.0
20260510043010 12 146 0.0 0.0 0.00 0.00 0.00 94 1007.0
20260510042511 12 146 0.0 0.0 0.00 0.00 0.00 94 1007.0
20260510041010 12 145 0.0 0.0 0.00 0.00 0.00 94 1006.9
20260510040011 12 145 0.0 0.0 0.00 0.00 0.00 94 1006.9
20260510035012 12 146 0.0 0.0 0.00 0.00 0.00 93 1006.9
20260510034510 12 146 0.0 0.0 0.00 0.00 0.00 93 1006.9
20260510034011 12 146 0.0 0.0 0.00 0.00 0.00 92 1006.7
20260510033512 12 146 0.0 0.0 0.00 0.00 0.00 92 1006.7
20260510033012 12 146 0.0 0.0 0.00 0.00 0.00 92 1006.7
20260510032510 12 146 0.0 0.0 0.00 0.00 0.00 91 1006.6
20260510032012 13 146 0.0 0.0 0.00 0.00 0.00 91 1006.6
20260510031510 13 147 0.0 0.0 0.00 0.00 0.00 90 1006.6
20260510031010 13 148 0.0 0.0 0.00 0.00 0.00 90 1006.7
20260510030510 13 147 0.0 0.0 0.00 0.00 0.00 89 1006.7
20260510030010 13 148 0.0 0.0 0.00 0.00 0.00 88 1006.7
20260510025510 13 147 0.0 0.0 0.00 0.00 0.00 88 1006.3
20260510025012 13 148 0.0 0.0 0.00 0.00 0.00 88 1006.3
20260510024010 13 148 0.0 0.0 0.00 0.00 0.00 87 1006.2
20260510023510 13 148 0.0 0.0 0.00 0.00 0.00 86 1006.2
20260510023010 14 148 0.0 0.0 0.00 0.00 0.00 85 1006.2
20260510022510 14 148 3.2 0.0 0.00 0.00 0.00 85 1005.9
20260510022010 14 150 0.0 0.0 0.00 0.00 0.00 84 1005.9
20260510021511 14 150 0.0 0.0 0.00 0.00 0.00 84 1005.9
20260510021011 14 150 0.0 0.0 0.00 0.00 0.00 83 1005.6
20260510020511 15 150 4.8 0.0 0.00 0.00 0.00 83 1005.6
20260510020011 15 150 3.2 0.0 0.00 0.00 0.00 82 1005.6
20260510015011 15 155 4.8 0.0 0.00 0.00 0.00 80 1005.5
20260510014511 15 155 0.0 0.0 0.00 0.00 0.00 79 1005.5
20260510013511 15 223 0.0 0.0 0.00 0.00 0.00 78 1005.4
20260510013011 15 223 0.0 0.0 0.00 0.00 0.00 77 1005.4
20260510012511 15 223 0.0 0.0 0.00 0.00 0.00 76 1005.1
20260510012011 16 223 0.0 0.0 0.00 0.00 0.00 75 1005.1
20260510011511 16 223 0.0 0.0 0.00 0.00 0.00 75 1005.1
20260510011011 16 223 0.0 0.0 0.00 0.00 0.00 73 1005.0
20260510010513 16 223 0.0 0.0 0.00 0.00 0.00 73 1005.0
20260510010011 16 223 0.0 0.0 0.00 0.00 0.00 72 1005.0
20260510005511 17 223 0.0 0.0 0.00 0.00 0.00 71 1004.7
20260510005011 17 223 0.0 0.0 0.00 0.00 0.00 69 1004.7
20260510004012 18 223 0.0 0.0 0.00 0.00 0.00 66 1004.5
20260510003511 18 223 0.0 0.0 0.00 0.00 0.00 65 1004.5
20260510003011 18 223 0.0 0.0 0.00 0.00 0.00 63 1004.5
20260510002512 18 223 0.0 0.0 0.00 0.00 0.00 62 1004.3
20260510002011 19 223 0.0 0.0 0.00 0.00 0.00 62 1004.3
20260510001511 19 223 0.0 0.0 0.00 0.00 0.00 61 1004.3
20260510001011 19 223 0.0 0.0 0.00 0.00 0.00 60 1004.3
20260510000511 20 223 0.0 0.0 0.00 0.00 0.00 60 1004.3
20260510000013 20 223 0.0 0.0 0.00 0.00 0.00 59 1004.3
20260509235512 20 188 0.0 0.0 0.00 0.00 0.00 59 1004.3
20260509235013 20 192 3.2 0.0 0.00 0.00 0.00 59 1004.3
20260509234511 20 191 0.0 0.0 0.00 0.00 0.00 59 1004.3
20260509234012 20 192 0.0 0.0 0.00 0.00 0.00 58 1004.3
20260509233511 20 192 0.0 0.0 0.00 0.00 0.00 58 1004.3
20260509233011 20 228 0.0 0.0 0.00 0.00 0.00 58 1004.3
20260509232511 20 194 8.0 0.0 0.00 0.00 0.00 58 1004.2
20260509232011 20 218 0.0 0.0 0.00 0.00 0.00 58 1004.2
20260509231511 20 217 0.0 0.0 0.00 0.00 0.00 58 1004.2
20260509231011 20 195 3.2 0.0 0.00 0.00 0.00 58 1004.1
20260509230511 20 170 0.0 0.0 0.00 0.00 0.00 58 1004.1
20260509230011 20 210 0.0 0.0 0.00 0.00 0.00 57 1004.1
20260509225511 20 210 0.0 0.0 0.00 0.00 0.00 57 1004.1
20260509225011 21 206 6.4 0.0 0.00 0.00 0.00 56 1004.1
20260509224511 21 212 0.0 0.0 0.00 0.00 0.00 56 1004.1
20260509223511 21 183 0.0 0.0 0.00 0.00 0.00 58 1004.0
20260509223011 21 143 4.8 0.0 0.00 0.00 0.00 57 1004.0
20260509222511 20 231 3.2 0.0 0.00 0.00 0.00 58 1004.1
20260509221011 20 195 0.0 0.0 0.00 0.00 0.00 58 1004.2
20260509220512 21 216 3.2 0.0 0.00 0.00 0.00 57 1004.2
20260509220011 21 193 0.0 0.0 0.00 0.00 0.00 57 1004.2
20260509215512 20 200 6.4 0.0 0.00 0.00 0.00 57 1004.3
20260509215012 21 193 3.2 0.0 0.00 0.00 0.00 56 1004.3
20260509214511 21 205 19.3 0.0 0.00 0.00 0.00 56 1004.3
20260509214010 21 196 3.2 0.0 0.00 0.00 0.00 56 1004.3
20260509213510 21 199 12.9 0.0 0.00 0.00 0.00 54 1004.3
20260509213010 21 203 3.2 0.0 0.00 0.00 0.00 56 1004.3
20260509212510 21 35 0.0 0.0 0.00 0.00 0.00 55 1004.1
20260509212012 21 209 0.0 0.0 0.00 0.00 0.00 56 1004.1
20260509211011 21 208 0.0 0.0 0.00 0.00 0.00 54 1004.1
20260509210510 21 218 0.0 0.0 0.00 0.00 0.00 57 1004.1
20260509210011 21 198 4.8 0.0 0.00 0.00 0.00 56 1004.1
20260509205512 21 183 0.0 0.0 0.00 0.00 0.00 55 1004.3